CZ-6A DEB

Satellite information

Favourite Embed

Satellite Type and Status

DEBRISIN ORBIT

Key statistics

Satellite CZ-6A DEB at a glance.

Uptime

495

Days in orbit

Revolutions

≈ 14.5

Per day

Orbit

LEO

Low Earth Orbit

Inclination

88.9

Latest

Satellite identification and parameters

Extended collection of information and parameters for CZ-6A DEB.

Object identification

Identified? True

Debris? True

Object name: CZ-6A DEB

International designator: 2024-140WX

Object number (NORAD): 61382

Object ID (CCSDS): 61382

Country: PEOPLES REPUBLIC OF CHINA (PRC)

Current information (Y/N): Y

RCS size: SMALL

Orbital parameters

Period: 99.337 minutes

Inclination: 88.9458 deg

SMA: 7105.075 km

Apoapsis: 785.624 km

Periapsis: 668.256 km

RAAN: 290.0244 deg

Eccentricy: 0.00825945

Argument of periapsis: 219.6715 deg

Mean anomaly: 139.8432 deg

Mean motion: 14.49605157 rev/day

Mean motion (dot): 0.00005625 rev/day2

B* drag term: 0.0013986178 1/REarth

Two-line elements (TLE)

Creation date: Dec. 12, 2025, 3:16 a.m.

Reference frame: TEME

Reference center: EARTH

Epoch: Dec. 11, 2025, 8:07 p.m. UTC

TLE line 0: 0 CZ-6A DEB

TLE line 1: 1 61382U 24140WX 25345.83833301 .00005625 00000-0 13986-2 0 9996

TLE line 2: 2 61382 88.9458 290.0244 0082595 219.6715 139.8432 14.49605157 66920

Live tracking on map

Real-time ground track for satellite CZ-6A DEB.

In-orbit conjunctions

A list of the most updated potential collisions computed for object CZ-6A DEB.

Target Orbit TCA Probability of collision Miss distance Type
COSMOS 886 DEB MEO 2025-10-04 15:29:56 0.0007187021 40.0 (m) DEBRIS
COSMOS 292 LEO 2025-07-19 04:38:46 0.0008009739 462.0 (m) PAYLOAD
COSMOS 2441 SSO 2025-07-15 02:12:38 0.0003975123 273.0 (m) PAYLOAD
DELTA 1 DEB LEO 2025-06-20 21:09:01 0.000253747 346.0 (m) DEBRIS
IRIDIUM 33 DEB LEO 2025-02-24 21:18:19 0.0002263425 728.0 (m) DEBRIS

Associated space launch

18 Low Earth Orbit communication satellites with Ku, Q and V band payloads for the G60 constellation operated by Shanghai Spacecom Satellite Technology (SSST) with funding backed by the Shanghai local government. Initial constellation will consist of 1296 satellites by 2027 with long term plans to expand it to 12000 satellites.

CZ-6A DEB was lifted into orbit during the mission ‘Long March 6A | G60 Polar Group 01’, on board a Long March 6A space rocket.

The launch took place on Aug. 6, 2024, 6:42 a.m. from Launch Complex 9A.

For more information about the launch, click the button.

Launch to space Long March 6A | G60 Polar Group 01
Long March 6A | G60 Polar Group 01

Agency: N/A

Status: Launch Successful

Launch date: Aug. 6, 2024, 6:42 a.m. UTC

Rocket: Long March 6A

Launch pad: Launch Complex 9A

Location: Taiyuan Satellite Launch Center, People's Republic of China

...

Latest news about this satellite

News about space launch
Brightness of first Chinese broadband constellation satellites alarms astronomers

The first satellites of a Chinese broadband constellation are significantly brighter than those of Western systems, posing a new challenge for astronomers.

News about space launch
Chinese rocket stage breaks up into cloud of more than 700 pieces of space debris

HELSINKI — A Chinese Long March 6A rocket’s upper stage has fragmented into a cloud of over 700 pieces of space debris, adding to concerns about long-term orbital safety. China […]

News about space launch
China's Thousand Sails Megaconstellation Kicks Off with Dangerous Debris Field

China's Thousand Sails Megaconstellation Kicks Off with Dangerous Debris Field


Newsletter sign-up

Weekly statistics, charts and insights to help you stay on top of the space industry.